Pleasanton, CA

10:10 AM PST on December 09, 2016 (GMT -0800)
Livermore Municipal

Weather History for KLVK - October, 2012

Change the Weather History Date:

Thursday, October 11, 2012

  Actual Average Record
Temperature  
Mean Temperature 59 °F 64 °F  
Max Temperature 62 °F 78 °F 97 °F (1958)
Min Temperature 56 °F 51 °F 39 °F (1973)
Degree Days  
Heating Degree Days 6 2  
Month to date heating degree days 18 19  
Since 1 July heating degree days 23 43  
Cooling Degree Days 0 2  
Month to date cooling degree days 47 26  
Year to date cooling degree days 924 815  
Growing Degree Days 8 (Base 50)    
Moisture  
Dew Point 50 °F    
Average Humidity 78    
Maximum Humidity 86    
Minimum Humidity 69    
Precipitation  
Precipitation 0.00 in 0.02 in 0.70 in (1972)
Month to date precipitation T 0.20  
Year to date precipitation 7.06 10.33  
Since 1 July precipitation T  
Sea Level Pressure  
Sea Level Pressure 29.92 in    
Wind  
Wind Speed 10 mph (West)    
Max Wind Speed 17 mph    
Max Gust Speed 21 mph    
Visibility 10 miles    
Events      
T = Trace of Precipitation, MM = Missing Value Source: NWS Daily Summary

Daily Weather History Graph

Daily Weather History Graph

Search for Another Location

Airport or City:

Trip Planner

Search our weather history database for the weather conditions in past years. The results will help you decide how hot, cold, wet, or windy it might be!

Date:

Astronomy

Oct. 11, 2012 Rise Set
Actual Time 7:12 AM PDT 6:34 PM PDT
Civil Twilight 6:46 AM PDT 7:00 PM PDT
Nautical Twilight 6:15 AM PDT 7:31 PM PDT
Astronomical Twilight 5:45 AM PDT 8:01 PM PDT
Moon 3:00 AM PDT (10/11) 4:10 PM PDT (10/11)
Length of Visible Light 12h 14m
Length of Day
11h 22m
Waning Crescent, 17% of the Moon is Illuminated
Oct 11
Waning Crescent
Oct 15
New
Oct 21
First Quarter
Oct 29
Full
Nov 6
Last Quarter

Hourly Weather History & Observations

Time (PDT) Temp. Dew Point Humidity Pressure Visibility Wind Dir Wind Speed Gust Speed Precip Events Conditions
12:11 AM 55.4 °F 50.0 °F 82% 29.94 in 10.0 mi West 3.5 mph - N/A   Mostly Cloudy
12:53 AM 57.0 °F 51.1 °F 81% 29.93 in 10.0 mi WSW 3.5 mph - N/A   Overcast
1:43 AM 55.4 °F 51.8 °F 88% 29.93 in 10.0 mi West 10.4 mph - N/A   Mostly Cloudy
1:53 AM 55.9 °F 51.1 °F 84% 29.92 in 10.0 mi WNW 9.2 mph - N/A   Mostly Cloudy
2:53 AM 57.0 °F 51.1 °F 81% 29.92 in 10.0 mi West 8.1 mph - N/A   Overcast
3:53 AM 57.0 °F 50.0 °F 77% 29.92 in 10.0 mi WSW 8.1 mph - N/A   Overcast
4:53 AM 55.9 °F 50.0 °F 80% 29.91 in 10.0 mi WSW 5.8 mph - N/A   Overcast
5:15 AM 57.2 °F 50.0 °F 77% 29.91 in 10.0 mi West 5.8 mph - N/A   Overcast
5:53 AM 55.9 °F 50.0 °F 80% 29.89 in 10.0 mi West 9.2 mph - N/A   Overcast
6:53 AM 55.9 °F 50.0 °F 80% 29.89 in 10.0 mi WNW 3.5 mph - N/A   Overcast
7:53 AM 55.9 °F 48.9 °F 77% 29.89 in 10.0 mi West 8.1 mph - N/A   Mostly Cloudy
8:53 AM 57.0 °F 48.9 °F 74% 29.91 in 10.0 mi West 5.8 mph - N/A   Mostly Cloudy
9:53 AM 57.9 °F 50.0 °F 75% 29.92 in 10.0 mi West 12.7 mph - N/A   Overcast
10:53 AM 59.0 °F 50.0 °F 72% 29.92 in 10.0 mi West 11.5 mph - N/A   Overcast
11:53 AM 59.0 °F 50.0 °F 72% 29.91 in 10.0 mi West 13.8 mph - N/A   Overcast
12:53 PM 59.0 °F 50.0 °F 72% 29.91 in 10.0 mi WSW 10.4 mph - N/A   Overcast
1:53 PM 60.1 °F 50.0 °F 69% 29.89 in 10.0 mi WSW 10.4 mph - N/A   Overcast
3:00 PM 60.8 °F 50.0 °F 68% 29.89 in 10.0 mi West 11.5 mph - N/A   Overcast
4:53 PM 59.0 °F 50.0 °F 72% 29.90 in 10.0 mi West 11.5 mph - N/A   Overcast
5:53 PM 57.9 °F 50.0 °F 75% 29.90 in 10.0 mi West 9.2 mph - N/A   Overcast
6:53 PM 57.9 °F 50.0 °F 75% 29.92 in 10.0 mi West 13.8 mph - N/A   Overcast
7:53 PM 57.0 °F 50.0 °F 77% 29.94 in 10.0 mi West 12.7 mph - N/A   Overcast
8:53 PM 57.0 °F 51.1 °F 81% 29.94 in 10.0 mi West 11.5 mph - N/A   Overcast
9:53 PM 57.0 °F 48.9 °F 74% 29.96 in 10.0 mi West 11.5 mph - N/A   Overcast
10:17 PM 57.2 °F 50.0 °F 77% 29.96 in 10.0 mi WSW 11.5 mph - N/A   Overcast
10:53 PM 57.0 °F 48.9 °F 74% 29.96 in 10.0 mi West 12.7 mph - N/A   Overcast
11:53 PM 57.0 °F 48.9 °F 74% 29.96 in 10.0 mi SW 6.9 mph - N/A   Overcast